| time (UTC) | temp C | wind direction | speed KPH | gust KPH | rain 1hr cm | rain 24hr cm | rain mn cm | humidity % | barometer mb |
| 20260504042009 | 12 | 253 | 8.0 | 22.5 | 0.00 | 0.03 | 0.00 | 51 | 1010.8 |
| 20260504041009 | 12 | 232 | 11.3 | 22.5 | 0.00 | 0.03 | 0.00 | 50 | 1010.9 |
| 20260504040030 | 12 | 241 | 17.7 | 25.7 | 0.00 | 0.03 | 0.00 | 51 | 1010.8 |
| 20260504035023 | 12 | 255 | 12.9 | 19.3 | 0.00 | 0.03 | 0.03 | 52 | 1010.8 |
| 20260504034025 | 12 | 234 | 8.0 | 14.5 | 0.00 | 0.03 | 0.03 | 52 | 1010.7 |
| 20260504033122 | 12 | 245 | 9.7 | 20.9 | 0.00 | 0.03 | 0.03 | 52 | 1010.5 |
| 20260504031122 | 12 | 247 | 9.7 | 22.5 | 0.00 | 0.03 | 0.03 | 54 | 1010.7 |
| 20260504025124 | 12 | 247 | 6.4 | 9.7 | 0.00 | 0.03 | 0.03 | 54 | 1010.8 |
| 20260504024124 | 11 | 264 | 11.3 | 17.7 | 0.00 | 0.03 | 0.03 | 55 | 1010.8 |
| 20260504023224 | 11 | 235 | 6.4 | 8.0 | 0.00 | 0.03 | 0.03 | 58 | 1011.0 |
| 20260504022222 | 11 | 267 | 6.4 | 11.3 | 0.00 | 0.03 | 0.03 | 57 | 1010.9 |
| 20260504021221 | 11 | 227 | 12.9 | 25.7 | 0.00 | 0.03 | 0.03 | 57 | 1010.9 |
| 20260504020224 | 11 | 259 | 4.8 | 11.3 | 0.00 | 0.03 | 0.03 | 59 | 1011.0 |
| 20260504015241 | 11 | 247 | 9.7 | 17.7 | 0.00 | 0.03 | 0.03 | 61 | 1011.0 |
| 20260504014339 | 11 | 250 | 1.6 | 6.4 | 0.00 | 0.03 | 0.03 | 63 | 1011.0 |
| 20260504013324 | 10 | 237 | 3.2 | 6.4 | 0.00 | 0.03 | 0.03 | 67 | 1011.0 |
| 20260504012324 | 10 | 241 | 6.4 | 14.5 | 0.00 | 0.03 | 0.03 | 74 | 1011.0 |
| 20260504010339 | 9 | 247 | 1.6 | 4.8 | 0.00 | 0.03 | 0.03 | 84 | 1011.0 |
| 20260504005323 | 10 | 157 | 0.0 | 0.0 | 0.00 | 0.03 | 0.03 | 87 | 1011.1 |
| 20260504003323 | 9 | 180 | 0.0 | 0.0 | 0.00 | 0.03 | 0.03 | 88 | 1011.3 |
| 20260504003223 | 9 | 180 | 0.0 | 0.0 | 0.00 | 0.03 | 0.03 | 87 | 1011.4 |
| 20260504002223 | 9 | 180 | 0.0 | 0.0 | 0.03 | 0.03 | 0.03 | 87 | 1011.5 |
| 20260504002123 | 9 | 180 | 0.0 | 0.0 | 0.03 | 0.03 | 0.03 | 86 | 1011.5 |
| 20260504001123 | 9 | 180 | 0.0 | 0.0 | 0.03 | 0.03 | 0.03 | 86 | 1011.4 |
| 20260503235124 | 10 | 247 | 1.6 | 4.8 | 0.03 | 0.03 | 0.03 | 85 | 1012.0 |
| 20260503234123 | 10 | 247 | 1.6 | 3.2 | 0.03 | 0.03 | 0.03 | 84 | 1012.0 |
| 20260503233122 | 10 | 270 | 3.2 | 3.2 | 0.03 | 0.03 | 0.00 | 83 | 1011.8 |
| 20260503232124 | 10 | 269 | 8.0 | 11.3 | 0.00 | 0.00 | 0.00 | 81 | 1011.8 |
| 20260503230123 | 10 | 264 | 8.0 | 12.9 | 0.00 | 0.00 | 0.00 | 75 | 1012.0 |
| 20260503224223 | 11 | 262 | 9.7 | 14.5 | 0.00 | 0.00 | 0.00 | 62 | 1011.8 |
| 20260503222322 | 11 | 265 | 6.4 | 9.7 | 0.00 | 0.00 | 0.00 | 59 | 1011.6 |
| 20260503221323 | 11 | 263 | 11.3 | 16.1 | 0.00 | 0.00 | 0.00 | 56 | 1011.5 |
| 20260503220323 | 11 | 271 | 4.8 | 9.7 | 0.00 | 0.00 | 0.00 | 56 | 1011.5 |
| 20260503215324 | 11 | 246 | 6.4 | 11.3 | 0.00 | 0.00 | 0.00 | 55 | 1011.4 |
| 20260503214324 | 11 | 265 | 12.9 | 16.1 | 0.00 | 0.00 | 0.00 | 54 | 1011.4 |
| 20260503213422 | 12 | 254 | 12.9 | 16.1 | 0.00 | 0.00 | 0.00 | 54 | 1011.2 |
| 20260503212423 | 12 | 261 | 8.0 | 14.5 | 0.00 | 0.00 | 0.00 | 54 | 1011.2 |
| 20260503211522 | 12 | 233 | 6.4 | 12.9 | 0.00 | 0.00 | 0.00 | 54 | 1011.2 |
| 20260503210523 | 12 | 270 | 4.8 | 8.0 | 0.00 | 0.00 | 0.00 | 52 | 1011.3 |
| 20260503205522 | 12 | 231 | 12.9 | 20.9 | 0.00 | 0.00 | 0.00 | 52 | 1011.4 |
| 20260503204621 | 12 | 245 | 12.9 | 20.9 | 0.00 | 0.00 | 0.00 | 50 | 1011.5 |
| 20260503203624 | 12 | 267 | 9.7 | 16.1 | 0.00 | 0.00 | 0.00 | 49 | 1011.5 |
| 20260503202623 | 12 | 258 | 9.7 | 16.1 | 0.00 | 0.00 | 0.00 | 49 | 1011.5 |
| 20260503201623 | 12 | 243 | 6.4 | 11.3 | 0.00 | 0.00 | 0.00 | 48 | 1011.6 |
| 20260503201539 | 12 | 257 | 12.9 | 19.3 | 0.00 | 0.00 | 0.00 | 49 | 1011.4 |
| 20260503200623 | 13 | 254 | 16.1 | 24.1 | 0.00 | 0.00 | 0.00 | 46 | 1011.7 |
| 20260503195621 | 13 | 267 | 12.9 | 22.5 | 0.00 | 0.00 | 0.00 | 46 | 1012.2 |
| 20260503194623 | 13 | 251 | 9.7 | 22.5 | 0.00 | 0.00 | 0.00 | 46 | 1012.1 |
| 20260503191722 | 13 | 259 | 8.0 | 16.1 | 0.00 | 0.00 | 0.00 | 43 | 1012.8 |
| 20260503190724 | 13 | 233 | 4.8 | 19.3 | 0.00 | 0.00 | 0.00 | 44 | 1013.0 |
| 20260503185723 | 13 | 234 | 11.3 | 22.5 | 0.00 | 0.00 | 0.00 | 44 | 1013.1 |
| 20260503184739 | 13 | 251 | 11.3 | 35.4 | 0.00 | 0.00 | 0.00 | 45 | 1013.3 |
| 20260503183822 | 12 | 244 | 9.7 | 19.3 | 0.00 | 0.00 | 0.00 | 44 | 1013.5 |
| 20260503181922 | 12 | 238 | 12.9 | 20.9 | 0.00 | 0.00 | 0.00 | 42 | 1013.6 |
| 20260503175923 | 12 | 253 | 14.5 | 22.5 | 0.00 | 0.00 | 0.00 | 40 | 1014.1 |
| 20260503173940 | 12 | 234 | 6.4 | 12.9 | 0.00 | 0.00 | 0.00 | 44 | 1014.2 |
| 20260503172922 | 12 | 235 | 19.3 | 30.6 | 0.00 | 0.00 | 0.00 | 42 | 1014.4 |
| 20260503170921 | 12 | 220 | 6.4 | 12.9 | 0.00 | 0.00 | 0.00 | 46 | 1014.5 |
| 20260503150121 | 10 | 226 | 9.7 | 16.1 | 0.00 | 0.00 | 0.00 | 62 | 1015.6 |
| 20260503140312 | 8 | 274 | 8.0 | 11.3 | 0.00 | 0.00 | 0.00 | 65 | 1016.1 |
| 20260503130312 | 7 | 265 | 4.8 | 11.3 | 0.00 | 0.00 | 0.00 | 67 | 1016.4 |
| 20260503110612 | 2 | 180 | 0.0 | 0.0 | 0.00 | 0.00 | 0.00 | 86 | 1016.0 |
| 20260503080812 | 1 | 247 | 0.0 | 3.2 | 0.00 | 0.00 | 0.00 | 84 | 1015.8 |
| 20260503072813 | 2 | 225 | 1.6 | 4.8 | 0.00 | 0.00 | 0.00 | 84 | 1015.7 |
| 20260503071813 | 2 | 245 | 3.2 | 6.4 | 0.00 | 0.00 | 0.00 | 87 | 1015.7 |
| 20260503070911 | 1 | 226 | 0.0 | 0.0 | 0.00 | 0.00 | 0.00 | 88 | 1015.7 |
| 20260503060213 | 2 | 270 | 0.0 | 0.0 | 0.00 | 0.00 | 0.00 | 86 | 1016.0 |
| 20260503054211 | 2 | 225 | 0.0 | 0.0 | 0.00 | 0.00 | 0.00 | 85 | 1016.1 |
| 20260503053213 | 2 | 225 | 0.0 | 0.0 | 0.00 | 0.00 | 0.00 | 84 | 1016.2 |
| 20260503052211 | 2 | 225 | 0.0 | 0.0 | 0.00 | 0.00 | 0.00 | 83 | 1016.4 |
| 20260503051310 | 2 | 225 | 0.0 | 0.0 | 0.00 | 0.00 | 0.00 | 83 | 1016.4 |
| 20260503050311 | 3 | 225 | 0.0 | 0.0 | 0.00 | 0.00 | 0.00 | 80 | 1016.7 |
| 20260503045311 | 3 | 225 | 0.0 | 0.0 | 0.00 | 0.00 | 0.00 | 77 | 1016.6 |
| 20260503044410 | 3 | 247 | 0.0 | 0.0 | 0.00 | 0.00 | 0.00 | 76 | 1016.7 |
| 20260503043412 | 3 | 270 | 3.2 | 4.8 | 0.00 | 0.00 | 0.00 | 75 | 1016.8 |
| 20260503042510 | 4 | 247 | 0.0 | 1.6 | 0.00 | 0.00 | 0.00 | 75 | 1017.0 |